Simultaneous Nadir Overpasses (SNOs) Predictions

Prediction of SNOs between GOES-14 and NPP Satellite Orbit:

Table of predicted SNOs for the next 14.0 days since TLE Epoch: 5/25/2024
Index Date Time (GOES-14) GOES-14 Lat,Lon NPP Lat,Lon Distance(km) Time Diff (sec)
1 05/26/2024 08:49:30 0.07,-108.62 0.71,-111.35 311.60 80
2 05/27/2024 08:33:23 0.09,-108.61 -0.29,-106.80 204.84 80
3 05/28/2024 20:52:37 -0.06,-108.59 -0.87,-112.10 401.35 80
4 05/29/2024 20:36:31 -0.08,-108.59 0.13,-107.56 115.75 80
5 05/31/2024 08:55:37 0.05,-108.59 0.99,-112.84 483.96 80
6 06/01/2024 08:39:31 0.06,-108.58 -0.01,-108.30 32.70 80
7 06/03/2024 20:39:58 -0.05,-108.55 -0.18,-109.05 57.27 80
8 06/04/2024 20:23:51 -0.06,-108.55 0.84,-104.51 459.70 80
9 06/06/2024 08:42:58 0.03,-108.55 0.27,-109.79 140.07 80
10 06/07/2024 08:26:50 0.04,-108.54 -0.68,-105.24 376.35 80
